Cordova, AK

5:39 AM AKDT on April 27, 2017 (GMT -0800)
Cordova-Smith

Weather History for PACV - October, 2013

Change the Weather History Date:

Monday, October 7, 2013

  Actual Average Record
Temperature  
Mean Temperature 41 °F -  
Max Temperature 55 °F 49 °F 58 °F (1962)
Min Temperature 28 °F 36 °F 19 °F (1958)
Degree Days  
Heating Degree Days 24    
Moisture  
Dew Point 33 °F    
Average Humidity 81    
Maximum Humidity 96    
Minimum Humidity 47    
Precipitation  
Precipitation 0.00 in - - ()
Sea Level Pressure  
Sea Level Pressure 29.78 in    
Wind  
Wind Speed 1 mph (ENE)    
Max Wind Speed 4 mph    
Max Gust Speed -    
Visibility 10 miles    
Events      
Averages and records for this station are not official NWS values.
T = Trace of Precipitation, MM = Missing Value Source: NWS Daily Summary

Daily Weather History Graph

Daily Weather History Graph

Search for Another Location

Airport or City:

Trip Planner

Search our weather history database for the weather conditions in past years. The results will help you decide how hot, cold, wet, or windy it might be!

Date:

Astronomy

Oct. 07, 2013 Rise Set
Actual Time 8:03 AM AKDT 6:54 PM AKDT
Civil Twilight 7:21 AM AKDT 7:36 PM AKDT
Nautical Twilight 6:32 AM AKDT 8:25 PM AKDT
Astronomical Twilight 5:41 AM AKDT 9:15 PM AKDT
Moon 11:58 AM AKDT (10/7) 7:49 PM AKDT (10/7)
Length of Visible Light 12h 15m
Length of Day
10h 50m
Waxing Crescent, 9% of the Moon is Illuminated
Oct 7
Waxing Crescent
Oct 11
First Quarter
Oct 18
Full
Oct 26
Last Quarter
Nov 3
New

Hourly Weather History & Observations

Time (AKDT) Temp. Windchill Dew Point Humidity Pressure Visibility Wind Dir Wind Speed Gust Speed Precip Events Conditions
12:53 AM 33.1 °F - 32.0 °F 96% 29.65 in 8.0 mi Calm Calm - N/A   Scattered Clouds
1:53 AM 32.0 °F 28.7 °F 30.0 °F 92% 29.66 in 10.0 mi NE 3.5 mph - N/A   Scattered Clouds
2:53 AM 30.9 °F - 28.9 °F 92% 29.67 in 10.0 mi Calm Calm - N/A   Partly Cloudy
3:53 AM 30.9 °F - 30.0 °F 96% 29.67 in 10.0 mi Calm Calm - N/A   Mostly Cloudy
4:53 AM 30.9 °F - 28.9 °F 92% 29.67 in 10.0 mi Calm Calm - N/A   Clear
5:53 AM 28.9 °F - 28.0 °F 96% 29.68 in 10.0 mi Calm Calm - N/A   Clear
6:53 AM 30.0 °F - 28.9 °F 96% 29.70 in 10.0 mi Calm Calm - N/A   Clear
7:53 AM 28.0 °F - 27.0 °F 96% 29.72 in 10.0 mi Calm Calm - N/A   Partly Cloudy
8:53 AM 30.0 °F - 28.9 °F 96% 29.73 in 10.0 mi Calm Calm - N/A   Partly Cloudy
9:53 AM 35.1 °F 32.2 °F 33.1 °F 92% 29.76 in 10.0 mi East 3.5 mph - N/A   Partly Cloudy
10:53 AM 43.0 °F - 39.9 °F 89% 29.77 in 10.0 mi Calm Calm - N/A   Partly Cloudy
11:53 AM 48.0 °F - 37.9 °F 68% 29.78 in 10.0 mi Calm Calm - N/A   Partly Cloudy
12:53 PM 50.0 °F - 36.0 °F 59% 29.79 in 10.0 mi Calm Calm - N/A   Scattered Clouds
1:53 PM 53.1 °F - 33.1 °F 47% 29.81 in 10.0 mi Calm Calm - N/A   Scattered Clouds
2:53 PM 54.0 °F - 35.1 °F 49% 29.83 in 10.0 mi Variable 3.5 mph - N/A   Scattered Clouds
3:53 PM 53.1 °F - 37.0 °F 55% 29.85 in 10.0 mi Calm Calm - N/A   Scattered Clouds
4:53 PM 53.1 °F - 36.0 °F 52% 29.86 in 10.0 mi Calm Calm - N/A   Scattered Clouds
5:53 PM 50.0 °F - 36.0 °F 59% 29.86 in 10.0 mi Calm Calm - N/A   Mostly Cloudy
6:53 PM 42.1 °F - 34.0 °F 73% 29.87 in 10.0 mi Calm Calm - N/A   Scattered Clouds
7:53 PM 37.0 °F - 35.1 °F 93% 29.89 in 10.0 mi Calm Calm - N/A   Scattered Clouds
8:53 PM 37.0 °F - 34.0 °F 89% 29.90 in 10.0 mi Calm Calm - N/A   Scattered Clouds
9:53 PM 37.0 °F - 34.0 °F 89% 29.89 in 10.0 mi Calm Calm - N/A   Scattered Clouds
10:53 PM 37.0 °F - 34.0 °F 89% 29.91 in 10.0 mi Calm Calm - N/A   Mostly Cloudy
11:53 PM 37.0 °F - 35.1 °F 93% 29.92 in 10.0 mi Calm Calm - N/A   Overcast